Time,TemperatureF,DewpointF,PressureIn,WindDirection,WindDirectionDegrees,WindSpeedMPH,WindSpeedGustMPH,Humidity,HourlyPrecipIn,Conditions,Clouds,dailyrainin,SoftwareType,DateUTC
2013-02-03 00:03:00,50.0,45.0,30.06,North,360,0.0,0.0,82,0.00,,,0.00,,2013-02-03 05:03:00,
2013-02-03 00:12:00,50.0,45.0,30.06,North,360,0.0,0.0,82,0.00,,,0.00,,2013-02-03 05:12:00,
2013-02-03 00:22:00,49.0,44.0,30.06,North,360,0.0,0.0,82,0.00,,,0.00,,2013-02-03 05:22:00,
2013-02-03 00:32:00,49.0,44.0,30.06,North,360,0.0,0.0,82,0.00,,,0.00,,2013-02-03 05:32:00,
2013-02-03 00:42:00,49.0,44.0,30.06,North,360,0.0,0.0,82,0.00,,,0.00,,2013-02-03 05:42:00,
2013-02-03 00:52:00,49.0,44.0,30.06,North,360,0.0,0.0,82,0.00,,,0.00,,2013-02-03 05:52:00,
2013-02-03 01:02:00,49.0,44.0,30.06,North,360,0.0,0.0,83,0.00,,,0.00,,2013-02-03 06:02:00,
2013-02-03 01:11:00,49.0,44.0,30.06,North,360,0.0,0.0,83,0.00,,,0.00,,2013-02-03 06:11:00,
2013-02-03 01:21:00,49.0,44.0,30.06,North,360,0.0,0.0,84,0.00,,,0.00,,2013-02-03 06:21:00,
2013-02-03 01:32:00,49.0,44.0,30.05,North,360,0.0,0.0,84,0.00,,,0.00,,2013-02-03 06:32:00,
2013-02-03 01:42:00,49.0,44.0,30.05,North,360,0.0,0.0,84,0.00,,,0.00,,2013-02-03 06:42:00,
2013-02-03 01:52:00,49.0,44.0,30.05,North,360,0.0,0.0,83,0.00,,,0.00,,2013-02-03 06:52:00,
2013-02-03 02:01:00,49.0,44.0,30.03,North,360,0.0,0.0,83,0.00,,,0.00,,2013-02-03 07:01:00,
2013-02-03 02:11:00,49.0,44.0,30.03,North,360,0.0,0.0,83,0.00,,,0.00,,2013-02-03 07:11:00,
2013-02-03 02:21:00,49.0,44.0,30.03,North,360,0.0,0.0,82,0.00,,,0.00,,2013-02-03 07:21:00,
2013-02-03 02:31:00,49.0,44.0,30.03,North,360,0.0,0.0,82,0.00,,,0.00,,2013-02-03 07:31:00,
2013-02-03 02:42:00,49.0,44.0,30.03,North,360,0.0,0.0,82,0.00,,,0.00,,2013-02-03 07:42:00,
2013-02-03 02:52:00,48.0,43.0,30.03,North,360,0.0,0.0,83,0.00,,,0.00,,2013-02-03 07:52:00,
2013-02-03 03:01:00,48.0,43.0,30.02,North,360,0.0,0.0,84,0.00,,,0.00,,2013-02-03 08:01:00,
2013-02-03 03:11:00,48.0,43.0,30.02,North,360,0.0,0.0,84,0.00,,,0.00,,2013-02-03 08:11:00,
2013-02-03 03:22:00,47.0,42.0,30.02,North,360,0.0,0.0,84,0.00,,,0.00,,2013-02-03 08:22:00,
2013-02-03 03:32:00,47.0,43.0,30.03,North,360,0.0,0.0,85,0.00,,,0.00,,2013-02-03 08:32:00,
2013-02-03 03:41:00,47.0,43.0,30.03,North,360,0.0,0.0,85,0.00,,,0.00,,2013-02-03 08:41:00,
2013-02-03 03:52:00,47.0,43.0,30.03,North,360,0.0,0.0,85,0.00,,,0.00,,2013-02-03 08:52:00,
2013-02-03 04:02:00,47.0,43.0,30.03,North,360,0.0,0.0,87,0.00,,,0.00,,2013-02-03 09:02:00,
2013-02-03 04:11:00,47.0,43.0,30.03,North,360,0.0,0.0,87,0.00,,,0.00,,2013-02-03 09:11:00,
2013-02-03 04:21:00,47.0,44.0,30.03,North,360,0.0,0.0,88,0.00,,,0.00,,2013-02-03 09:21:00,
2013-02-03 04:31:00,46.0,43.0,30.03,North,360,0.0,0.0,88,0.00,,,0.00,,2013-02-03 09:31:00,
2013-02-03 04:42:00,46.0,43.0,30.03,North,360,0.0,0.0,88,0.00,,,0.00,,2013-02-03 09:42:00,
2013-02-03 04:52:00,46.0,43.0,30.03,North,360,0.0,0.0,88,0.00,,,0.00,,2013-02-03 09:52:00,
2013-02-03 05:01:00,45.0,42.0,30.03,North,360,0.0,0.0,88,0.00,,,0.00,,2013-02-03 10:01:00,
2013-02-03 05:11:00,45.0,42.0,30.04,North,360,0.0,0.0,89,0.00,,,0.00,,2013-02-03 10:11:00,
2013-02-03 05:21:00,45.0,42.0,30.04,North,360,0.0,0.0,89,0.00,,,0.00,,2013-02-03 10:21:00,
2013-02-03 05:31:00,45.0,42.0,30.04,North,360,0.0,0.0,90,0.00,,,0.00,,2013-02-03 10:31:00,
2013-02-03 05:42:00,45.0,42.0,30.04,North,360,0.0,0.0,90,0.00,,,0.00,,2013-02-03 10:42:00,
2013-02-03 05:53:00,45.0,42.0,30.05,North,360,0.0,0.0,90,0.00,,,0.00,,2013-02-03 10:53:00,
2013-02-03 06:02:00,44.0,41.0,30.05,North,360,0.0,0.0,90,0.00,,,0.00,,2013-02-03 11:02:00,
2013-02-03 06:11:00,44.0,41.0,30.05,North,360,0.0,0.0,90,0.00,,,0.00,,2013-02-03 11:11:00,
2013-02-03 06:22:00,44.0,41.0,30.05,North,360,0.0,0.0,90,0.00,,,0.00,,2013-02-03 11:22:00,
2013-02-03 06:32:00,44.0,42.0,30.05,North,360,0.0,0.0,91,0.00,,,0.00,,2013-02-03 11:32:00,
2013-02-03 06:42:00,44.0,42.0,30.05,North,360,0.0,0.0,91,0.00,,,0.00,,2013-02-03 11:42:00,
2013-02-03 06:52:00,44.0,42.0,30.06,North,360,0.0,0.0,91,0.00,,,0.00,,2013-02-03 11:52:00,
2013-02-03 07:02:00,44.0,42.0,30.06,North,360,0.0,0.0,92,0.00,,,0.00,,2013-02-03 12:02:00,
2013-02-03 07:12:00,44.0,42.0,30.06,North,360,0.0,0.0,92,0.00,,,0.00,,2013-02-03 12:12:00,
2013-02-03 07:22:00,44.0,42.0,30.07,North,360,0.0,0.0,92,0.00,,,0.00,,2013-02-03 12:22:00,
2013-02-03 07:32:00,44.0,42.0,30.07,North,360,0.0,0.0,92,0.00,,,0.00,,2013-02-03 12:32:00,
2013-02-03 07:42:00,44.0,42.0,30.07,North,360,0.0,0.0,92,0.00,,,0.00,,2013-02-03 12:42:00,
2013-02-03 07:53:00,44.0,42.0,30.08,North,360,0.0,0.0,92,0.00,,,0.00,,2013-02-03 12:53:00,
2013-02-03 08:03:00,44.0,42.0,30.08,North,360,0.0,0.0,92,0.00,,,0.00,,2013-02-03 13:03:00,
2013-02-03 08:11:00,45.0,43.0,30.08,North,360,0.0,0.0,93,0.00,,,0.00,,2013-02-03 13:11:00,
2013-02-03 08:22:00,45.0,43.0,30.08,North,360,0.0,0.0,93,0.00,,,0.00,,2013-02-03 13:22:00,
2013-02-03 08:32:00,45.0,43.0,30.09,North,360,0.0,0.0,93,0.00,,,0.00,,2013-02-03 13:32:00,
2013-02-03 08:42:00,45.0,43.0,30.09,North,360,0.0,0.0,93,0.00,,,0.00,,2013-02-03 13:42:00,
2013-02-03 08:52:00,46.0,44.0,30.09,North,360,0.0,0.0,93,0.00,,,0.00,,2013-02-03 13:52:00,
2013-02-03 09:02:00,48.0,46.0,30.10,North,360,0.0,0.0,92,0.00,,,0.00,,2013-02-03 14:02:00,
2013-02-03 09:12:00,48.0,46.0,30.10,North,360,0.0,0.0,92,0.00,,,0.00,,2013-02-03 14:12:00,
2013-02-03 09:22:00,49.0,46.0,30.09,North,360,0.0,0.0,91,0.00,,,0.00,,2013-02-03 14:22:00,
2013-02-03 09:32:00,51.0,48.0,30.09,North,360,0.0,0.0,89,0.01,,,0.01,,2013-02-03 14:32:00,
2013-02-03 09:42:00,51.0,48.0,30.09,North,360,0.0,0.0,89,0.01,,,0.01,,2013-02-03 14:42:00,
2013-02-03 09:52:00,53.0,49.0,30.09,NE,42,1.0,2.0,87,0.01,,,0.01,,2013-02-03 14:52:00,
2013-02-03 10:03:00,54.0,49.0,30.09,NE,42,0.0,1.0,84,0.01,,,0.01,,2013-02-03 15:03:00,
2013-02-03 10:11:00,56.0,50.0,30.09,NNE,22,1.0,3.0,81,0.01,,,0.01,,2013-02-03 15:11:00,
2013-02-03 10:22:00,56.0,50.0,30.09,NNE,22,1.0,3.0,81,0.01,,,0.01,,2013-02-03 15:22:00,
2013-02-03 10:33:00,58.0,52.0,30.09,North,360,0.0,0.0,81,0.00,,,0.01,,2013-02-03 15:33:00,
2013-02-03 10:42:00,58.0,52.0,30.09,North,360,0.0,0.0,81,0.00,,,0.01,,2013-02-03 15:42:00,
2013-02-03 10:52:00,60.0,53.0,30.08,North,360,0.0,0.0,77,0.00,,,0.01,,2013-02-03 15:52:00,
2013-02-03 11:03:00,61.0,53.0,30.09,SE,137,1.0,3.0,74,0.00,,,0.01,,2013-02-03 16:03:00,
2013-02-03 11:11:00,61.0,53.0,30.09,SE,137,1.0,3.0,74,0.00,,,0.01,,2013-02-03 16:11:00,
2013-02-03 11:22:00,64.0,54.0,30.08,ESE,115,0.0,1.0,70,0.00,,,0.01,,2013-02-03 16:22:00,
2013-02-03 11:33:00,66.0,55.0,30.08,North,358,0.0,4.0,67,0.00,,,0.01,,2013-02-03 16:33:00,
2013-02-03 11:42:00,66.0,55.0,30.08,North,358,0.0,4.0,67,0.00,,,0.01,,2013-02-03 16:42:00,
2013-02-03 11:52:00,67.0,54.0,30.08,North,1,1.0,3.0,64,0.00,,,0.01,,2013-02-03 16:52:00,
2013-02-03 12:02:00,68.0,55.0,30.08,NNE,31,1.0,2.0,63,0.00,,,0.01,,2013-02-03 17:02:00,
2013-02-03 12:11:00,68.0,55.0,30.08,NNE,31,1.0,2.0,63,0.00,,,0.01,,2013-02-03 17:11:00,
2013-02-03 12:22:00,68.0,54.0,30.07,North,360,0.0,0.0,62,0.00,,,0.01,,2013-02-03 17:22:00,
2013-02-03 12:32:00,69.0,55.0,30.06,ENE,73,0.0,2.0,61,0.00,,,0.01,,2013-02-03 17:32:00,
2013-02-03 12:42:00,69.0,55.0,30.06,ENE,73,0.0,2.0,61,0.00,,,0.01,,2013-02-03 17:42:00,
2013-02-03 12:52:00,69.0,55.0,30.06,North,11,0.0,4.0,60,0.00,,,0.01,,2013-02-03 17:52:00,
2013-02-03 13:03:00,70.0,55.0,30.05,SE,137,1.0,1.0,59,0.00,,,0.01,,2013-02-03 18:03:00,
2013-02-03 13:12:00,70.0,55.0,30.05,SE,137,1.0,1.0,59,0.00,,,0.01,,2013-02-03 18:12:00,
2013-02-03 13:23:00,71.0,56.0,30.05,ENE,57,0.0,1.0,59,0.00,,,0.01,,2013-02-03 18:23:00,
2013-02-03 13:33:00,71.0,55.0,30.03,North,360,0.0,0.0,58,0.00,,,0.01,,2013-02-03 18:33:00,
2013-02-03 13:42:00,71.0,55.0,30.03,North,360,0.0,0.0,58,0.00,,,0.01,,2013-02-03 18:42:00,
2013-02-03 13:52:00,72.0,56.0,30.03,North,360,1.0,1.0,58,0.00,,,0.01,,2013-02-03 18:52:00,
2013-02-03 14:02:00,72.0,55.0,30.02,SSW,193,0.0,1.0,55,0.00,,,0.01,,2013-02-03 19:02:00,
2013-02-03 14:11:00,72.0,55.0,30.02,SSW,193,0.0,1.0,55,0.00,,,0.01,,2013-02-03 19:11:00,
2013-02-03 14:22:00,71.0,54.0,30.02,WSW,237,1.0,1.0,56,0.00,,,0.01,,2013-02-03 19:22:00,
2013-02-03 14:32:00,71.0,54.0,30.02,NNE,24,0.0,2.0,56,0.00,,,0.01,,2013-02-03 19:32:00,
2013-02-03 14:42:00,71.0,54.0,30.02,NNE,24,0.0,2.0,56,0.00,,,0.01,,2013-02-03 19:42:00,
2013-02-03 14:52:00,71.0,54.0,30.02,WNW,292,0.0,0.0,56,0.00,,,0.01,,2013-02-03 19:52:00,
2013-02-03 15:01:00,70.0,54.0,30.01,North,360,0.0,0.0,56,0.00,,,0.01,,2013-02-03 20:01:00,
2013-02-03 15:12:00,70.0,54.0,30.01,North,360,0.0,0.0,56,0.00,,,0.01,,2013-02-03 20:12:00,
2013-02-03 15:22:00,70.0,54.0,30.00,ENE,65,0.0,0.0,56,0.00,,,0.01,,2013-02-03 20:22:00,
2013-02-03 15:33:00,70.0,54.0,30.00,North,360,0.0,0.0,57,0.00,,,0.01,,2013-02-03 20:33:00,
2013-02-03 15:42:00,70.0,54.0,30.00,North,360,0.0,0.0,57,0.00,,,0.01,,2013-02-03 20:42:00,
2013-02-03 15:52:00,70.0,54.0,30.00,SE,137,0.0,0.0,57,0.00,,,0.01,,2013-02-03 20:52:00,
2013-02-03 16:03:00,68.0,53.0,30.00,NNE,31,0.0,0.0,59,0.00,,,0.01,,2013-02-03 21:03:00,
2013-02-03 16:11:00,68.0,53.0,30.00,NNE,31,0.0,0.0,59,0.00,,,0.01,,2013-02-03 21:11:00,
2013-02-03 16:21:00,67.0,53.0,30.00,North,360,0.0,0.0,60,0.00,,,0.01,,2013-02-03 21:21:00,
2013-02-03 16:32:00,66.0,53.0,29.99,North,360,0.0,0.0,62,0.00,,,0.01,,2013-02-03 21:32:00,
2013-02-03 16:42:00,66.0,53.0,29.99,North,360,0.0,0.0,62,0.00,,,0.01,,2013-02-03 21:42:00,
2013-02-03 16:52:00,66.0,53.0,29.99,North,360,0.0,0.0,63,0.00,,,0.01,,2013-02-03 21:52:00,
2013-02-03 17:01:00,65.0,53.0,30.00,North,360,0.0,0.0,64,0.00,,,0.01,,2013-02-03 22:01:00,
2013-02-03 17:11:00,65.0,53.0,30.00,North,360,0.0,0.0,64,0.00,,,0.01,,2013-02-03 22:11:00,
2013-02-03 17:21:00,64.0,53.0,30.00,North,360,0.0,0.0,67,0.00,,,0.01,,2013-02-03 22:21:00,
2013-02-03 17:32:00,63.0,53.0,30.00,ENE,68,0.0,0.0,69,0.00,,,0.01,,2013-02-03 22:32:00,
2013-02-03 17:42:00,63.0,53.0,30.00,ENE,68,0.0,0.0,69,0.00,,,0.01,,2013-02-03 22:42:00,
2013-02-03 17:52:00,62.0,52.0,30.00,North,360,0.0,0.0,70,0.00,,,0.01,,2013-02-03 22:52:00,
2013-02-03 18:01:00,61.0,52.0,30.00,North,360,0.0,0.0,72,0.00,,,0.01,,2013-02-03 23:01:00,
2013-02-03 18:12:00,61.0,52.0,30.00,North,360,0.0,0.0,72,0.00,,,0.01,,2013-02-03 23:12:00,
2013-02-03 18:22:00,60.0,52.0,30.00,North,360,0.0,0.0,74,0.00,,,0.01,,2013-02-03 23:22:00,
2013-02-03 18:32:00,59.0,51.0,30.00,North,360,0.0,0.0,76,0.01,,,0.02,,2013-02-03 23:32:00,
2013-02-03 18:42:00,59.0,51.0,30.00,North,360,0.0,0.0,76,0.01,,,0.02,,2013-02-03 23:42:00,
2013-02-03 18:52:00,59.0,52.0,30.01,North,360,0.0,0.0,77,0.01,,,0.02,,2013-02-03 23:52:00,
2013-02-03 19:02:00,58.0,51.0,30.01,North,360,0.0,0.0,78,0.01,,,0.02,,2013-02-04 00:02:00,
2013-02-03 19:11:00,58.0,51.0,30.01,North,360,0.0,0.0,78,0.01,,,0.02,,2013-02-04 00:11:00,
2013-02-03 19:22:00,57.0,51.0,30.00,North,360,0.0,0.0,80,0.01,,,0.02,,2013-02-04 00:22:00,
2013-02-03 19:32:00,55.0,49.0,30.00,North,360,0.0,0.0,81,0.00,,,0.02,,2013-02-04 00:32:00,
2013-02-03 19:42:00,55.0,49.0,30.00,North,360,0.0,0.0,81,0.00,,,0.02,,2013-02-04 00:42:00,
2013-02-03 19:52:00,55.0,50.0,30.01,North,360,0.0,0.0,82,0.00,,,0.02,,2013-02-04 00:52:00,
2013-02-03 20:01:00,54.0,49.0,30.01,North,360,0.0,0.0,83,0.00,,,0.02,,2013-02-04 01:01:00,
2013-02-03 20:11:00,53.0,48.0,30.02,North,360,0.0,0.0,84,0.00,,,0.02,,2013-02-04 01:11:00,
2013-02-03 20:21:00,53.0,48.0,30.02,North,360,0.0,0.0,84,0.00,,,0.02,,2013-02-04 01:21:00,
2013-02-03 20:32:00,52.0,48.0,30.02,North,360,0.0,0.0,85,0.00,,,0.02,,2013-02-04 01:32:00,
2013-02-03 20:42:00,52.0,48.0,30.02,North,360,0.0,0.0,85,0.00,,,0.02,,2013-02-04 01:42:00,
2013-02-03 20:52:00,52.0,48.0,30.02,North,360,0.0,0.0,85,0.00,,,0.02,,2013-02-04 01:52:00,
2013-02-03 21:02:00,51.0,47.0,30.02,North,360,0.0,0.0,87,0.00,,,0.02,,2013-02-04 02:02:00,
2013-02-03 21:11:00,51.0,47.0,30.02,North,360,0.0,0.0,87,0.00,,,0.02,,2013-02-04 02:11:00,
2013-02-03 21:21:00,51.0,47.0,30.02,North,360,0.0,0.0,87,0.00,,,0.02,,2013-02-04 02:21:00,
2013-02-03 21:32:00,51.0,48.0,30.03,North,360,0.0,0.0,88,0.00,,,0.02,,2013-02-04 02:32:00,
2013-02-03 21:41:00,51.0,48.0,30.03,North,360,0.0,0.0,88,0.00,,,0.02,,2013-02-04 02:41:00,
2013-02-03 21:52:00,50.0,47.0,30.03,North,360,0.0,0.0,88,0.00,,,0.02,,2013-02-04 02:52:00,
2013-02-03 22:02:00,50.0,47.0,30.02,North,360,0.0,0.0,88,0.00,,,0.02,,2013-02-04 03:02:00,
2013-02-03 22:11:00,49.0,46.0,30.02,North,360,0.0,0.0,89,0.00,,,0.02,,2013-02-04 03:11:00,
2013-02-03 22:21:00,49.0,46.0,30.02,North,360,0.0,0.0,89,0.00,,,0.02,,2013-02-04 03:21:00,
2013-02-03 22:32:00,49.0,46.0,30.03,North,360,0.0,0.0,89,0.00,,,0.02,,2013-02-04 03:32:00,
2013-02-03 22:42:00,49.0,46.0,30.03,North,360,0.0,0.0,89,0.00,,,0.02,,2013-02-04 03:42:00,
2013-02-03 22:52:00,48.0,45.0,30.03,North,360,0.0,0.0,89,0.00,,,0.02,,2013-02-04 03:52:00,
2013-02-03 23:01:00,48.0,45.0,30.02,North,360,0.0,0.0,90,0.00,,,0.02,,2013-02-04 04:01:00,
2013-02-03 23:11:00,48.0,45.0,30.02,North,360,0.0,0.0,90,0.00,,,0.02,,2013-02-04 04:11:00,
2013-02-03 23:21:00,48.0,45.0,30.02,North,360,0.0,0.0,90,0.00,,,0.02,,2013-02-04 04:21:00,
2013-02-03 23:32:00,47.0,45.0,30.02,North,360,0.0,0.0,91,0.00,,,0.02,,2013-02-04 04:32:00,
2013-02-03 23:42:00,47.0,45.0,30.02,North,360,0.0,0.0,91,0.00,,,0.02,,2013-02-04 04:42:00,
2013-02-03 23:52:00,47.0,45.0,30.01,North,360,0.0,0.0,91,0.00,,,0.02,,2013-02-04 04:52:00,